Tracking 29747 objects as of 9-Oct-2024
HD Live streaming from Space Station
objects crossing your sky now

SL-14 DEB

Track SL-14 DEB now!
10-day predictions


NORAD ID: 45331
Int'l Code: 1991-056BV
Perigee: 1,151.9 km
Apogee: 1,488.7 km
Inclination: 82.7 °
Period: 111.9 minutes
Semi major axis: 7691 km
RCS: Unknown
Launch date: August 15, 1991
Source: Commonwealth of Independent States (former USSR) (CIS)
Launch site: PLESETSK MISSILE AND SPACE COMPLEX (PKMTR)

Note: This is SATELLITE DEBRIS
Your satellite tracking list
Your tracking list is empty




NASA's NSSDC Master Catalog

Two Line Element Set (TLE):
1 45331U 91056BV  24282.36608555  .00021308  00000-0  76346-1 0  9994
2 45331  82.6804 304.9358 0218977 232.3873 125.7179 12.87079294215908
Source of the keplerian elements: AFSPC